| time (UTC) | temp C | wind direction | speed KPH | gust KPH | rain 1hr cm | rain 24hr cm | rain mn cm | humidity % | barometer mb |
| 20260506201551 | 21 | 167 | 4.8 | 20.9 | 0.00 | 0.18 | 0.18 | 75 | 1007.8 |
| 20260506201038 | 20 | 245 | 3.2 | 17.7 | 0.00 | 0.18 | 0.18 | 76 | 1007.7 |
| 20260506200538 | 20 | 261 | 8.0 | 17.7 | 0.00 | 0.18 | 0.18 | 76 | 1007.8 |
| 20260506200054 | 20 | 92 | 3.2 | 12.9 | 0.00 | 0.18 | 0.18 | 77 | 1007.7 |
| 20260506195538 | 20 | 222 | 4.8 | 22.5 | 0.00 | 0.18 | 0.18 | 77 | 1007.6 |
| 20260506195038 | 20 | 192 | 6.4 | 22.5 | 0.00 | 0.18 | 0.18 | 78 | 1007.7 |
| 20260506194552 | 20 | 237 | 3.2 | 14.5 | 0.00 | 0.18 | 0.18 | 78 | 1007.8 |
| 20260506194034 | 20 | 242 | 6.4 | 14.5 | 0.00 | 0.18 | 0.18 | 78 | 1007.9 |
| 20260506193537 | 20 | 163 | 4.8 | 16.1 | 0.00 | 0.18 | 0.18 | 78 | 1007.8 |
| 20260506193050 | 20 | 187 | 3.2 | 16.1 | 0.00 | 0.18 | 0.18 | 79 | 1008.0 |
| 20260506192538 | 20 | 232 | 3.2 | 14.5 | 0.00 | 0.18 | 0.18 | 79 | 1008.3 |
| 20260506192038 | 20 | 205 | 3.2 | 14.5 | 0.00 | 0.18 | 0.18 | 79 | 1008.4 |
| 20260506191546 | 20 | 204 | 3.2 | 16.1 | 0.00 | 0.18 | 0.18 | 79 | 1008.3 |
| 20260506191039 | 20 | 0 | 1.6 | 17.7 | 0.00 | 0.18 | 0.18 | 79 | 1008.5 |
| 20260506190538 | 19 | 150 | 3.2 | 17.7 | 0.00 | 0.18 | 0.18 | 79 | 1008.6 |
| 20260506190051 | 19 | 0 | 4.8 | 17.7 | 0.00 | 0.18 | 0.18 | 80 | 1008.6 |
| 20260506185538 | 19 | 173 | 3.2 | 22.5 | 0.00 | 0.18 | 0.18 | 79 | 1008.6 |
| 20260506185038 | 19 | 0 | 8.0 | 22.5 | 0.00 | 0.18 | 0.18 | 79 | 1008.8 |
| 20260506184552 | 19 | 184 | 6.4 | 17.7 | 0.00 | 0.18 | 0.18 | 79 | 1008.8 |
| 20260506184038 | 19 | 253 | 4.8 | 17.7 | 0.00 | 0.18 | 0.18 | 79 | 1008.8 |
| 20260506183538 | 19 | 154 | 4.8 | 16.1 | 0.00 | 0.18 | 0.18 | 79 | 1008.9 |
| 20260506183051 | 19 | 284 | 3.2 | 16.1 | 0.00 | 0.18 | 0.18 | 79 | 1008.7 |
| 20260506182538 | 19 | 146 | 4.8 | 14.5 | 0.00 | 0.18 | 0.18 | 79 | 1008.9 |
| 20260506182038 | 19 | 193 | 4.8 | 16.1 | 0.00 | 0.18 | 0.18 | 79 | 1008.9 |
| 20260506181551 | 19 | 238 | 4.8 | 16.1 | 0.00 | 0.18 | 0.18 | 80 | 1009.0 |
| 20260506181038 | 19 | 238 | 4.8 | 16.1 | 0.00 | 0.18 | 0.18 | 80 | 1009.1 |
| 20260506180539 | 19 | 194 | 3.2 | 17.7 | 0.00 | 0.18 | 0.18 | 80 | 1008.9 |
| 20260506180059 | 19 | 191 | 4.8 | 19.3 | 0.00 | 0.18 | 0.18 | 80 | 1008.8 |
| 20260506175538 | 19 | 221 | 3.2 | 19.3 | 0.00 | 0.18 | 0.18 | 80 | 1009.1 |
| 20260506175038 | 19 | 188 | 6.4 | 19.3 | 0.00 | 0.18 | 0.18 | 80 | 1009.0 |
| 20260506174556 | 19 | 244 | 4.8 | 12.9 | 0.00 | 0.18 | 0.18 | 80 | 1009.0 |
| 20260506174038 | 18 | 263 | 3.2 | 16.1 | 0.00 | 0.18 | 0.18 | 80 | 1009.1 |
| 20260506173539 | 18 | 296 | 6.4 | 16.1 | 0.00 | 0.18 | 0.18 | 80 | 1009.1 |
| 20260506173051 | 18 | 194 | 1.6 | 16.1 | 0.00 | 0.18 | 0.18 | 82 | 1009.1 |
| 20260506172538 | 18 | 226 | 4.8 | 12.9 | 0.00 | 0.18 | 0.18 | 81 | 1009.1 |
| 20260506172038 | 18 | 95 | 1.6 | 12.9 | 0.00 | 0.18 | 0.18 | 82 | 1009.2 |
| 20260506171556 | 18 | 0 | 4.8 | 14.5 | 0.00 | 0.18 | 0.18 | 81 | 1009.2 |
| 20260506171052 | 18 | 181 | 4.8 | 16.1 | 0.00 | 0.18 | 0.18 | 81 | 1009.2 |
| 20260506170538 | 18 | 169 | 1.6 | 16.1 | 0.00 | 0.18 | 0.18 | 82 | 1009.2 |
| 20260506170105 | 18 | 198 | 6.4 | 16.1 | 0.00 | 0.18 | 0.18 | 82 | 1009.2 |
| 20260506165538 | 18 | 242 | 4.8 | 16.1 | 0.00 | 0.18 | 0.18 | 82 | 1009.2 |
| 20260506165039 | 18 | 144 | 4.8 | 16.1 | 0.00 | 0.18 | 0.18 | 82 | 1009.3 |
| 20260506164547 | 18 | 270 | 1.6 | 12.9 | 0.00 | 0.18 | 0.18 | 83 | 1009.4 |
| 20260506164038 | 18 | 0 | 3.2 | 17.7 | 0.00 | 0.18 | 0.18 | 83 | 1009.6 |
| 20260506163542 | 18 | 200 | 4.8 | 19.3 | 0.00 | 0.18 | 0.18 | 84 | 1009.5 |
| 20260506163106 | 18 | 204 | 4.8 | 19.3 | 0.00 | 0.18 | 0.18 | 84 | 1009.6 |
| 20260506162542 | 17 | 130 | 4.8 | 17.7 | 0.00 | 0.18 | 0.18 | 85 | 1009.3 |
| 20260506162041 | 17 | 157 | 4.8 | 17.7 | 0.00 | 0.18 | 0.18 | 85 | 1010.2 |
| 20260506161548 | 17 | 178 | 4.8 | 22.5 | 0.00 | 0.18 | 0.18 | 86 | 1010.0 |
| 20260506161042 | 17 | 204 | 6.4 | 22.5 | 0.00 | 0.18 | 0.18 | 86 | 1009.9 |
| 20260506160538 | 17 | 186 | 3.2 | 12.9 | 0.00 | 0.18 | 0.18 | 87 | 1009.9 |
| 20260506160045 | 17 | 164 | 1.6 | 12.9 | 0.00 | 0.18 | 0.18 | 88 | 1009.8 |
| 20260506155541 | 17 | 64 | 3.2 | 12.9 | 0.03 | 0.18 | 0.18 | 89 | 1009.7 |
| 20260506155038 | 17 | 190 | 1.6 | 16.1 | 0.03 | 0.18 | 0.18 | 89 | 1009.8 |
| 20260506154607 | 16 | 199 | 1.6 | 16.1 | 0.05 | 0.18 | 0.18 | 89 | 1009.9 |
| 20260506154038 | 16 | 26 | 3.2 | 14.5 | 0.05 | 0.18 | 0.18 | 89 | 1009.9 |
| 20260506153537 | 16 | 215 | 1.6 | 12.9 | 0.05 | 0.18 | 0.18 | 90 | 1009.8 |
| 20260506153059 | 16 | 185 | 3.2 | 11.3 | 0.05 | 0.18 | 0.18 | 89 | 1009.9 |
| 20260506152538 | 16 | 125 | 3.2 | 12.9 | 0.08 | 0.18 | 0.18 | 89 | 1009.9 |
| 20260506152035 | 16 | 0 | 4.8 | 14.5 | 0.13 | 0.18 | 0.18 | 89 | 1009.8 |
| 20260506151548 | 16 | 206 | 3.2 | 14.5 | 0.15 | 0.18 | 0.18 | 89 | 1009.7 |
| 20260506151038 | 16 | 348 | 3.2 | 12.9 | 0.15 | 0.18 | 0.18 | 89 | 1009.6 |
| 20260506150538 | 16 | 69 | 1.6 | 12.9 | 0.15 | 0.18 | 0.18 | 89 | 1009.7 |
| 20260506150048 | 16 | 250 | 4.8 | 12.9 | 0.15 | 0.18 | 0.18 | 88 | 1009.9 |
| 20260506145539 | 16 | 0 | 4.8 | 12.9 | 0.13 | 0.15 | 0.15 | 89 | 1010.0 |
| 20260506145038 | 16 | 360 | 3.2 | 11.3 | 0.13 | 0.15 | 0.15 | 89 | 1010.2 |
| 20260506144548 | 16 | 175 | 1.6 | 11.3 | 0.10 | 0.13 | 0.13 | 89 | 1010.3 |
| 20260506144038 | 16 | 229 | 1.6 | 11.3 | 0.10 | 0.13 | 0.13 | 88 | 1010.6 |
| 20260506143542 | 16 | 173 | 1.6 | 11.3 | 0.10 | 0.13 | 0.13 | 87 | 1010.4 |
| 20260506143059 | 17 | 193 | 1.6 | 11.3 | 0.10 | 0.13 | 0.13 | 87 | 1010.6 |
| 20260506142541 | 17 | 89 | 0.0 | 8.0 | 0.08 | 0.10 | 0.10 | 87 | 1010.6 |
| 20260506142038 | 17 | 0 | 3.2 | 11.3 | 0.03 | 0.05 | 0.05 | 86 | 1010.4 |
| 20260506141549 | 17 | 0 | 3.2 | 11.3 | 0.03 | 0.03 | 0.03 | 85 | 1010.4 |
| 20260506141041 | 17 | 132 | 1.6 | 11.3 | 0.03 | 0.03 | 0.03 | 85 | 1010.4 |
| 20260506140540 | 17 | 103 | 1.6 | 11.3 | 0.03 | 0.03 | 0.03 | 85 | 1010.2 |
| 20260506140054 | 17 | 190 | 3.2 | 11.3 | 0.03 | 0.03 | 0.03 | 85 | 1010.2 |
| 20260506135537 | 17 | 0 | 1.6 | 11.3 | 0.03 | 0.03 | 0.03 | 84 | 1010.2 |
| 20260506135037 | 17 | 0 | 1.6 | 11.3 | 0.03 | 0.03 | 0.03 | 84 | 1010.0 |
| 20260506134548 | 17 | 173 | 1.6 | 9.7 | 0.03 | 0.03 | 0.03 | 84 | 1010.1 |
| 20260506134039 | 17 | 0 | 0.0 | 11.3 | 0.03 | 0.03 | 0.03 | 83 | 1010.2 |
| 20260506133539 | 17 | 0 | 1.6 | 11.3 | 0.03 | 0.03 | 0.03 | 83 | 1010.1 |
| 20260506133048 | 17 | 161 | 1.6 | 9.7 | 0.03 | 0.03 | 0.03 | 82 | 1010.1 |
| 20260506132538 | 17 | 159 | 1.6 | 11.3 | 0.03 | 0.03 | 0.03 | 81 | 1010.1 |
| 20260506132038 | 17 | 147 | 1.6 | 11.3 | 0.03 | 0.03 | 0.03 | 80 | 1010.1 |
| 20260506131547 | 17 | 170 | 3.2 | 11.3 | 0.00 | 0.00 | 0.00 | 78 | 1010.2 |
| 20260506131038 | 17 | 271 | 0.0 | 11.3 | 0.00 | 0.00 | 0.00 | 77 | 1010.4 |
| 20260506130539 | 17 | 213 | 3.2 | 11.3 | 0.00 | 0.00 | 0.00 | 77 | 1010.4 |
| 20260506130047 | 17 | 241 | 0.0 | 11.3 | 0.00 | 0.00 | 0.00 | 77 | 1010.3 |
| 20260506125542 | 17 | 0 | 3.2 | 11.3 | 0.00 | 0.00 | 0.00 | 76 | 1010.1 |
| 20260506125042 | 17 | 163 | 1.6 | 9.7 | 0.00 | 0.00 | 0.00 | 76 | 1010.1 |
| 20260506124555 | 18 | 108 | 1.6 | 11.3 | 0.00 | 0.00 | 0.00 | 74 | 1010.1 |
| 20260506124038 | 18 | 0 | 1.6 | 16.1 | 0.00 | 0.00 | 0.00 | 74 | 1010.2 |
| 20260506123538 | 18 | 171 | 3.2 | 16.1 | 0.00 | 0.00 | 0.00 | 72 | 1009.8 |
| 20260506123051 | 18 | 256 | 3.2 | 16.1 | 0.00 | 0.00 | 0.00 | 72 | 1009.8 |
| 20260506122538 | 18 | 136 | 3.2 | 12.9 | 0.00 | 0.00 | 0.00 | 72 | 1009.7 |
| 20260506122038 | 18 | 0 | 1.6 | 12.9 | 0.00 | 0.00 | 0.00 | 71 | 1009.9 |
| 20260506121552 | 18 | 166 | 3.2 | 14.5 | 0.00 | 0.00 | 0.00 | 71 | 1009.9 |
| 20260506121038 | 18 | 188 | 1.6 | 14.5 | 0.00 | 0.00 | 0.00 | 71 | 1009.9 |
| 20260506120539 | 18 | 159 | 1.6 | 16.1 | 0.00 | 0.00 | 0.00 | 71 | 1009.8 |
| 20260506120058 | 18 | 0 | 1.6 | 17.7 | 0.00 | 0.00 | 0.00 | 70 | 1010.0 |
| 20260506115539 | 18 | 142 | 3.2 | 17.7 | 0.00 | 0.00 | 0.00 | 70 | 1010.1 |
| 20260506115038 | 18 | 272 | 3.2 | 19.3 | 0.00 | 0.00 | 0.00 | 70 | 1010.2 |
| 20260506114558 | 18 | 205 | 3.2 | 19.3 | 0.00 | 0.00 | 0.00 | 70 | 1010.1 |
| 20260506114038 | 18 | 231 | 3.2 | 16.1 | 0.00 | 0.00 | 0.00 | 70 | 1010.2 |
| 20260506113541 | 18 | 142 | 4.8 | 16.1 | 0.00 | 0.00 | 0.00 | 70 | 1010.2 |
| 20260506113050 | 18 | 199 | 3.2 | 16.1 | 0.00 | 0.00 | 0.00 | 70 | 1009.9 |
| 20260506112539 | 18 | 261 | 3.2 | 16.1 | 0.00 | 0.00 | 0.00 | 70 | 1010.0 |
| 20260506112038 | 18 | 259 | 3.2 | 12.9 | 0.00 | 0.00 | 0.00 | 70 | 1009.9 |
| 20260506111554 | 18 | 241 | 4.8 | 11.3 | 0.00 | 0.00 | 0.00 | 70 | 1009.9 |
| 20260506111038 | 18 | 166 | 1.6 | 12.9 | 0.00 | 0.00 | 0.00 | 70 | 1009.8 |
| 20260506110538 | 18 | 245 | 3.2 | 14.5 | 0.00 | 0.00 | 0.00 | 70 | 1009.8 |
| 20260506110059 | 18 | 235 | 3.2 | 22.5 | 0.00 | 0.00 | 0.00 | 70 | 1009.7 |
| 20260506105538 | 18 | 248 | 4.8 | 22.5 | 0.00 | 0.00 | 0.00 | 71 | 1009.6 |
| 20260506105038 | 18 | 189 | 3.2 | 16.1 | 0.00 | 0.00 | 0.00 | 71 | 1009.5 |
| 20260506104548 | 18 | 121 | 6.4 | 17.7 | 0.00 | 0.00 | 0.00 | 71 | 1009.6 |
| 20260506104038 | 18 | 132 | 4.8 | 17.7 | 0.00 | 0.00 | 0.00 | 71 | 1009.7 |
| 20260506103539 | 18 | 171 | 1.6 | 14.5 | 0.00 | 0.00 | 0.00 | 71 | 1009.7 |
| 20260506103048 | 18 | 243 | 4.8 | 16.1 | 0.00 | 0.00 | 0.00 | 71 | 1009.6 |
| 20260506102539 | 18 | 0 | 3.2 | 16.1 | 0.00 | 0.00 | 0.00 | 71 | 1009.8 |
| 20260506102039 | 18 | 208 | 3.2 | 11.3 | 0.00 | 0.00 | 0.00 | 71 | 1009.8 |
| 20260506101602 | 18 | 131 | 1.6 | 11.3 | 0.00 | 0.00 | 0.00 | 71 | 1009.8 |
| 20260506101040 | 18 | 202 | 0.0 | 11.3 | 0.00 | 0.00 | 0.00 | 71 | 1009.8 |
| 20260506100538 | 18 | 161 | 3.2 | 11.3 | 0.00 | 0.00 | 0.00 | 71 | 1009.7 |
| 20260506100051 | 18 | 146 | 1.6 | 8.0 | 0.00 | 0.00 | 0.00 | 70 | 1009.8 |
| 20260506095540 | 18 | 0 | 1.6 | 11.3 | 0.00 | 0.00 | 0.00 | 70 | 1009.7 |
| 20260506095038 | 18 | 180 | 1.6 | 11.3 | 0.00 | 0.00 | 0.00 | 70 | 1009.7 |
| 20260506094607 | 18 | 146 | 1.6 | 11.3 | 0.00 | 0.00 | 0.00 | 70 | 1009.7 |
| 20260506094038 | 18 | 218 | 3.2 | 20.9 | 0.00 | 0.00 | 0.00 | 70 | 1009.6 |
| 20260506093538 | 18 | 200 | 1.6 | 20.9 | 0.00 | 0.00 | 0.00 | 70 | 1009.5 |
| 20260506093054 | 18 | 200 | 4.8 | 20.9 | 0.00 | 0.00 | 0.00 | 70 | 1009.5 |
| 20260506092538 | 18 | 152 | 1.6 | 9.7 | 0.00 | 0.00 | 0.00 | 70 | 1009.6 |
| 20260506092038 | 18 | 201 | 1.6 | 9.7 | 0.00 | 0.00 | 0.00 | 69 | 1009.5 |
| 20260506091548 | 18 | 211 | 4.8 | 16.1 | 0.00 | 0.00 | 0.00 | 69 | 1009.6 |
| 20260506091038 | 18 | 189 | 4.8 | 16.1 | 0.00 | 0.00 | 0.00 | 69 | 1009.7 |
| 20260506090538 | 18 | 239 | 1.6 | 9.7 | 0.00 | 0.00 | 0.00 | 69 | 1009.7 |
| 20260506090046 | 18 | 0 | 1.6 | 9.7 | 0.00 | 0.00 | 0.00 | 69 | 1009.7 |
| 20260506085538 | 18 | 182 | 1.6 | 9.7 | 0.00 | 0.00 | 0.00 | 68 | 1009.8 |
| 20260506085038 | 18 | 0 | 4.8 | 12.9 | 0.00 | 0.00 | 0.00 | 68 | 1009.9 |
| 20260506084548 | 18 | 0 | 3.2 | 22.5 | 0.00 | 0.00 | 0.00 | 68 | 1009.9 |
| 20260506084041 | 18 | 294 | 3.2 | 22.5 | 0.00 | 0.00 | 0.00 | 68 | 1009.7 |
| 20260506083539 | 18 | 156 | 4.8 | 16.1 | 0.00 | 0.00 | 0.00 | 68 | 1009.8 |
| 20260506083052 | 18 | 302 | 3.2 | 11.3 | 0.00 | 0.00 | 0.00 | 67 | 1009.8 |
| 20260506082541 | 19 | 250 | 3.2 | 11.3 | 0.00 | 0.00 | 0.00 | 67 | 1009.8 |
| 20260506082038 | 19 | 169 | 3.2 | 11.3 | 0.00 | 0.00 | 0.00 | 67 | 1009.9 |
| 20260506081551 | 19 | 250 | 3.2 | 11.3 | 0.00 | 0.00 | 0.00 | 67 | 1009.9 |
| 20260506081038 | 19 | 0 | 1.6 | 11.3 | 0.00 | 0.00 | 0.00 | 66 | 1009.9 |
| 20260506080538 | 19 | 182 | 1.6 | 12.9 | 0.00 | 0.00 | 0.00 | 66 | 1009.9 |
| 20260506073053 | 20 | 274 | 3.2 | 16.1 | 0.00 | 0.00 | 0.00 | 65 | 1009.8 |
| 20260506072538 | 20 | 234 | 3.2 | 16.1 | 0.00 | 0.00 | 0.00 | 64 | 1009.8 |
| 20260506072039 | 20 | 252 | 3.2 | 19.3 | 0.00 | 0.00 | 0.00 | 64 | 1009.9 |
| 20260506071553 | 20 | 196 | 6.4 | 22.5 | 0.00 | 0.00 | 0.00 | 64 | 1009.9 |
| 20260506071038 | 20 | 171 | 6.4 | 22.5 | 0.00 | 0.00 | 0.00 | 64 | 1009.9 |
| 20260506070538 | 20 | 61 | 3.2 | 16.1 | 0.00 | 0.00 | 0.00 | 64 | 1010.0 |
| 20260506062038 | 20 | 0 | 3.2 | 11.3 | 0.00 | 0.00 | 0.00 | 61 | 1010.3 |
| 20260506061548 | 20 | 159 | 1.6 | 9.7 | 0.00 | 0.00 | 0.00 | 60 | 1010.2 |
| 20260506061037 | 21 | 240 | 1.6 | 9.7 | 0.00 | 0.00 | 0.00 | 60 | 1010.2 |
| 20260506060538 | 21 | 0 | 0.0 | 17.7 | 0.00 | 0.00 | 0.00 | 59 | 1010.2 |
| 20260506051038 | 22 | 264 | 8.0 | 22.5 | 0.00 | 0.00 | 0.00 | 56 | 1010.4 |
| 20260506050538 | 22 | 163 | 6.4 | 22.5 | 0.00 | 0.00 | 0.00 | 56 | 1010.5 |
| 20260506045038 | 22 | 184 | 4.8 | 14.5 | 0.00 | 0.00 | 0.00 | 55 | 1010.7 |
| 20260506044552 | 22 | 254 | 4.8 | 16.1 | 0.00 | 0.00 | 0.00 | 54 | 1010.7 |
| 20260506044038 | 22 | 203 | 4.8 | 16.1 | 0.00 | 0.00 | 0.00 | 54 | 1010.5 |
| 20260506043536 | 22 | 185 | 4.8 | 20.9 | 0.00 | 0.00 | 0.00 | 54 | 1010.6 |
| 20260506043047 | 22 | 273 | 4.8 | 20.9 | 0.00 | 0.00 | 0.00 | 53 | 1010.6 |
| 20260506042536 | 22 | 225 | 3.2 | 27.4 | 0.00 | 0.00 | 0.00 | 53 | 1010.6 |
| 20260506042037 | 22 | 203 | 4.8 | 27.4 | 0.00 | 0.00 | 0.00 | 53 | 1010.5 |
| 20260506041549 | 22 | 181 | 4.8 | 19.3 | 0.00 | 0.00 | 0.00 | 53 | 1010.7 |
| 20260506041036 | 22 | 196 | 4.8 | 19.3 | 0.00 | 0.00 | 0.00 | 52 | 1010.6 |
| 20260506040534 | 22 | 139 | 6.4 | 19.3 | 0.00 | 0.00 | 0.00 | 52 | 1010.7 |
| 20260506040058 | 22 | 273 | 1.6 | 19.3 | 0.00 | 0.00 | 0.00 | 52 | 1010.6 |
| 20260506035538 | 22 | 210 | 4.8 | 22.5 | 0.00 | 0.00 | 0.00 | 51 | 1010.7 |
| 20260506035036 | 22 | 182 | 6.4 | 22.5 | 0.00 | 0.00 | 0.00 | 51 | 1010.6 |
| 20260506034605 | 22 | 181 | 6.4 | 19.3 | 0.00 | 0.00 | 0.00 | 51 | 1010.6 |
| 20260506034034 | 22 | 246 | 4.8 | 19.3 | 0.00 | 0.00 | 0.00 | 51 | 1010.4 |
| 20260506033534 | 22 | 147 | 3.2 | 19.3 | 0.00 | 0.00 | 0.00 | 51 | 1010.4 |
| 20260506033048 | 22 | 215 | 6.4 | 19.3 | 0.00 | 0.00 | 0.00 | 51 | 1010.4 |
| 20260506032535 | 22 | 194 | 3.2 | 16.1 | 0.00 | 0.00 | 0.00 | 51 | 1010.6 |
| 20260506032036 | 22 | 220 | 3.2 | 17.7 | 0.00 | 0.00 | 0.00 | 51 | 1010.6 |
| 20260506031558 | 22 | 143 | 3.2 | 17.7 | 0.00 | 0.00 | 0.00 | 51 | 1010.6 |
| 20260506031036 | 22 | 117 | 1.6 | 16.1 | 0.00 | 0.00 | 0.00 | 51 | 1010.6 |
| 20260506030534 | 22 | 192 | 4.8 | 16.1 | 0.00 | 0.00 | 0.00 | 51 | 1010.6 |
| 20260506030052 | 22 | 196 | 1.6 | 12.9 | 0.00 | 0.00 | 0.00 | 51 | 1010.6 |
| 20260506025536 | 22 | 207 | 1.6 | 12.9 | 0.00 | 0.00 | 0.00 | 51 | 1010.6 |
| 20260506025035 | 22 | 0 | 0.0 | 8.0 | 0.00 | 0.00 | 0.00 | 51 | 1010.6 |
| 20260506024552 | 22 | 225 | 3.2 | 8.0 | 0.00 | 0.00 | 0.00 | 50 | 1010.6 |
| 20260506024034 | 22 | 10 | 0.0 | 9.7 | 0.00 | 0.00 | 0.00 | 50 | 1010.7 |
| 20260506023536 | 22 | 0 | 0.0 | 9.7 | 0.00 | 0.00 | 0.00 | 49 | 1010.8 |
| 20260506023050 | 22 | 217 | 3.2 | 9.7 | 0.00 | 0.00 | 0.00 | 49 | 1010.8 |
| 20260506022536 | 22 | 0 | 3.2 | 9.7 | 0.00 | 0.00 | 0.00 | 49 | 1010.8 |
| 20260506022035 | 22 | 0 | 0.0 | 9.7 | 0.00 | 0.00 | 0.00 | 48 | 1010.9 |
| 20260506021557 | 23 | 173 | 1.6 | 8.0 | 0.00 | 0.00 | 0.00 | 47 | 1010.8 |
| 20260506021034 | 23 | 86 | 1.6 | 11.3 | 0.00 | 0.00 | 0.00 | 47 | 1010.8 |
| 20260506020536 | 23 | 153 | 1.6 | 11.3 | 0.00 | 0.00 | 0.00 | 47 | 1010.8 |
| 20260506020052 | 23 | 188 | 0.0 | 6.4 | 0.00 | 0.00 | 0.00 | 46 | 1010.8 |
| 20260506015536 | 23 | 100 | 1.6 | 6.4 | 0.00 | 0.00 | 0.00 | 45 | 1010.8 |
| 20260506015036 | 23 | 142 | 0.0 | 8.0 | 0.00 | 0.00 | 0.00 | 45 | 1010.6 |
| 20260506014547 | 23 | 0 | 1.6 | 14.5 | 0.00 | 0.00 | 0.00 | 44 | 1010.6 |
| 20260506014039 | 23 | 149 | 1.6 | 14.5 | 0.00 | 0.00 | 0.00 | 44 | 1010.5 |
| 20260506013538 | 23 | 180 | 1.6 | 11.3 | 0.00 | 0.00 | 0.00 | 44 | 1010.6 |
| 20260506013052 | 23 | 251 | 1.6 | 11.3 | 0.00 | 0.00 | 0.00 | 43 | 1010.6 |
| 20260506012537 | 23 | 173 | 1.6 | 9.7 | 0.00 | 0.00 | 0.00 | 43 | 1010.5 |
| 20260506012039 | 24 | 154 | 1.6 | 9.7 | 0.00 | 0.00 | 0.00 | 42 | 1010.4 |
| 20260506011551 | 24 | 166 | 1.6 | 9.7 | 0.00 | 0.00 | 0.00 | 41 | 1010.3 |
| 20260506011038 | 24 | 217 | 1.6 | 9.7 | 0.00 | 0.00 | 0.00 | 41 | 1010.2 |
| 20260506010538 | 24 | 211 | 1.6 | 9.7 | 0.00 | 0.00 | 0.00 | 41 | 1010.1 |
| 20260506010057 | 24 | 0 | 1.6 | 14.5 | 0.00 | 0.00 | 0.00 | 40 | 1010.1 |
| 20260506005538 | 24 | 180 | 4.8 | 14.5 | 0.00 | 0.00 | 0.00 | 40 | 1010.1 |
| 20260506005038 | 25 | 148 | 3.2 | 12.9 | 0.00 | 0.00 | 0.00 | 39 | 1010.0 |
| 20260506004550 | 25 | 203 | 3.2 | 12.9 | 0.00 | 0.00 | 0.00 | 39 | 1009.9 |
| 20260506004038 | 25 | 223 | 4.8 | 12.9 | 0.00 | 0.00 | 0.00 | 39 | 1009.9 |
| 20260506003538 | 25 | 241 | 1.6 | 11.3 | 0.00 | 0.00 | 0.00 | 38 | 1009.8 |
| 20260506003058 | 25 | 193 | 3.2 | 11.3 | 0.00 | 0.00 | 0.00 | 38 | 1009.9 |
| 20260506002537 | 25 | 0 | 3.2 | 11.3 | 0.00 | 0.00 | 0.00 | 37 | 1009.8 |
| 20260506002038 | 25 | 0 | 3.2 | 11.3 | 0.00 | 0.00 | 0.00 | 37 | 1009.8 |
| 20260506001547 | 25 | 180 | 3.2 | 11.3 | 0.00 | 0.00 | 0.00 | 37 | 1009.8 |
| 20260506001039 | 25 | 0 | 3.2 | 14.5 | 0.00 | 0.00 | 0.00 | 37 | 1009.7 |
| 20260506000539 | 25 | 205 | 3.2 | 14.5 | 0.00 | 0.00 | 0.00 | 36 | 1009.6 |
| 20260506000100 | 25 | 238 | 3.2 | 14.5 | 0.00 | 0.00 | 0.00 | 36 | 1009.6 |
| 20260505235539 | 26 | 180 | 1.6 | 14.5 | 0.00 | 0.00 | 0.00 | 36 | 1009.6 |
| 20260505235038 | 26 | 219 | 3.2 | 14.5 | 0.00 | 0.00 | 0.00 | 35 | 1009.5 |
| 20260505234558 | 26 | 223 | 4.8 | 14.5 | 0.00 | 0.00 | 0.00 | 34 | 1009.5 |
| 20260505234039 | 26 | 193 | 4.8 | 11.3 | 0.00 | 0.00 | 0.00 | 34 | 1009.4 |
| 20260505233538 | 26 | 142 | 1.6 | 11.3 | 0.00 | 0.00 | 0.00 | 34 | 1009.4 |
| 20260505233108 | 26 | 231 | 3.2 | 20.9 | 0.00 | 0.00 | 0.00 | 33 | 1009.3 |
| 20260505232538 | 26 | 194 | 3.2 | 20.9 | 0.00 | 0.00 | 0.00 | 32 | 1009.4 |
| 20260505232038 | 26 | 235 | 4.8 | 20.9 | 0.00 | 0.00 | 0.00 | 32 | 1009.4 |
| 20260505231556 | 27 | 0 | 3.2 | 16.1 | 0.00 | 0.00 | 0.00 | 31 | 1009.4 |
| 20260505231038 | 27 | 231 | 3.2 | 16.1 | 0.00 | 0.00 | 0.00 | 31 | 1009.4 |
| 20260505230538 | 27 | 221 | 6.4 | 22.5 | 0.00 | 0.00 | 0.00 | 30 | 1009.4 |
| 20260505230048 | 27 | 205 | 6.4 | 22.5 | 0.00 | 0.00 | 0.00 | 30 | 1009.4 |
| 20260505225538 | 27 | 232 | 6.4 | 22.5 | 0.00 | 0.00 | 0.00 | 29 | 1009.4 |
| 20260505225040 | 27 | 200 | 8.0 | 22.5 | 0.00 | 0.00 | 0.00 | 29 | 1009.3 |
| 20260505224547 | 27 | 165 | 6.4 | 27.4 | 0.00 | 0.00 | 0.00 | 29 | 1009.5 |
| 20260505224037 | 27 | 276 | 9.7 | 27.4 | 0.00 | 0.00 | 0.00 | 28 | 1009.5 |
| 20260505223534 | 28 | 205 | 9.7 | 22.5 | 0.00 | 0.00 | 0.00 | 28 | 1009.4 |
| 20260505223052 | 28 | 221 | 6.4 | 19.3 | 0.00 | 0.00 | 0.00 | 27 | 1009.3 |
| 20260505222534 | 28 | 219 | 4.8 | 32.2 | 0.00 | 0.00 | 0.00 | 26 | 1009.3 |
| 20260505222036 | 28 | 250 | 8.0 | 32.2 | 0.00 | 0.00 | 0.00 | 27 | 1009.2 |
| 20260505221549 | 28 | 170 | 6.4 | 17.7 | 0.00 | 0.00 | 0.00 | 28 | 1009.2 |
| 20260505221035 | 28 | 178 | 4.8 | 20.9 | 0.00 | 0.00 | 0.00 | 28 | 1009.2 |
| 20260505220539 | 28 | 180 | 6.4 | 24.1 | 0.00 | 0.00 | 0.00 | 29 | 1009.1 |
| 20260505220048 | 28 | 232 | 3.2 | 24.1 | 0.00 | 0.00 | 0.00 | 29 | 1009.1 |
| 20260505215535 | 28 | 231 | 4.8 | 17.7 | 0.00 | 0.00 | 0.00 | 28 | 1009.2 |
| 20260505215035 | 28 | 278 | 1.6 | 17.7 | 0.00 | 0.00 | 0.00 | 28 | 1009.2 |
| 20260505214555 | 28 | 205 | 3.2 | 20.9 | 0.00 | 0.00 | 0.00 | 27 | 1009.2 |
| 20260505214035 | 28 | 286 | 6.4 | 20.9 | 0.00 | 0.00 | 0.00 | 27 | 1009.2 |
| 20260505213534 | 28 | 248 | 8.0 | 22.5 | 0.00 | 0.00 | 0.00 | 27 | 1009.3 |
| 20260505213048 | 28 | 234 | 4.8 | 22.5 | 0.00 | 0.00 | 0.00 | 26 | 1009.2 |
| 20260505212536 | 28 | 49 | 6.4 | 22.5 | 0.00 | 0.00 | 0.00 | 25 | 1009.2 |
| 20260505212035 | 28 | 239 | 4.8 | 30.6 | 0.00 | 0.00 | 0.00 | 26 | 1009.2 |
| 20260505211547 | 29 | 288 | 4.8 | 30.6 | 0.00 | 0.00 | 0.00 | 26 | 1009.1 |
| 20260505211038 | 29 | 142 | 9.7 | 29.0 | 0.00 | 0.00 | 0.00 | 24 | 1009.0 |
| 20260505210535 | 29 | 31 | 6.4 | 19.3 | 0.00 | 0.00 | 0.00 | 25 | 1009.1 |
| 20260505210051 | 28 | 246 | 8.0 | 19.3 | 0.00 | 0.00 | 0.00 | 25 | 1009.1 |
| 20260505205536 | 28 | 255 | 9.7 | 30.6 | 0.00 | 0.00 | 0.00 | 24 | 1009.1 |
| 20260505205035 | 28 | 274 | 8.0 | 30.6 | 0.00 | 0.00 | 0.00 | 24 | 1009.0 |
| 20260505204548 | 29 | 250 | 6.4 | 27.4 | 0.00 | 0.00 | 0.00 | 25 | 1009.3 |
| 20260505204035 | 29 | 261 | 8.0 | 30.6 | 0.00 | 0.00 | 0.00 | 24 | 1009.0 |
| 20260505203536 | 29 | 188 | 9.7 | 30.6 | 0.00 | 0.00 | 0.00 | 24 | 1009.0 |
| 20260505203055 | 30 | 296 | 4.8 | 25.7 | 0.00 | 0.00 | 0.00 | 25 | 1009.0 |
| 20260505202539 | 30 | 239 | 8.0 | 25.7 | 0.00 | 0.00 | 0.00 | 25 | 1009.0 |
| 20260505202037 | 29 | 62 | 6.4 | 25.7 | 0.00 | 0.00 | 0.00 | 25 | 1009.2 |